Location: Dos Palmas
(32.4468°N, 116.8732°W)
Time: 23:46:22
(UTC+00:00)

Cosmos 968 Rocket - Pass Details

Date: 20 June 2021
Orbit: 741 x 770 km, 74.0° (Epoch: 27 July)

Event Time Altitude Azimuth Distance (km) Brightness Sun altitude
Rises 06:27:22 0° 339° (NNW) 3,184 7.9 -30.8°
Reaches altitude 10° 06:29:44 10° 336° (NNW) 2,260 6.8 -31.0°
Enters shadow 06:33:28 46° 312° (NW) 998 4.3 -31.3°
